Tracking 18032 objects as of 27-March-2017
HD Live streaming from Space Station
objects crossing your sky now

OPS 9332 (IDSCS 17)

Track OPS 9332 (IDSCS 17) now!
OPS 9332 (IDSCS 17) is classified as:


NORAD ID: 2863
Int'l Code: 1967-066B
Perigee: 33,023.1 km
Apogee: 33,565.5 km
Inclination: 5.0 °
Period: 1,310.3 minutes
Semi major axis: 39665 km
RCS: 0.6309 m2 (medium)
Launch date: July 1, 1967
Source: United States (US)
Launch site: AIR FORCE EASTERN TEST RANGE (AFETR)
Your satellite tracking list
Your tracking list is empty





NASA's NSSDC Master Catalog

Two Line Element Set (TLE):
1  2863U 67066B   17080.28158069 -.00000111 +00000-0 +00000-0 0  9993
2  2863 004.9989 293.9415 0068377 337.7258 294.0616 01.09897213087765
Source of the keplerian elements: AFSPC